Weather in Vandysh

Russia / Arkhangel'skaya Oblast'     61°19′50″N   40°14′51″E
temp.,
°C
wind,
m/s
gust,
m/s
humid.,
%
clouds,
%
prec.,
mm/h
press.,
hPa
HPBL,
m
28 november, sun
sun2800:00−6ne51195100 1.7 1006481
03:00−6ne51295100 3.4 1003489
06:00−6ne41195100 2.0 1001457
09:00−7ne41095100 3.4 1001414
12:00−7ne3894100 0.8 1001363
15:00−7ne3895100 1.6 1001360
18:00−8nne3895100 1.1 1001333
21:00−8n3696100 3.9 1002303
29 november, mon
mon2900:00−10nnw269587 1.1 1005253
03:00−11wnw139781 1.3 100884
06:00−16nnw139965 0.0 101051
09:00−20n1110093 0.0 10139
12:00−15ne1396100 0.0 101394
15:00−17ne249896 0.0 101357
18:00−15ene31095100 0.0 1012246
21:00−15ene31294100 0.0 1010292
30 november, tue
tue3000:00−14ene41493100 0.0 1006341
03:00−13ene51593100 0.1 1002410
06:00−11ene51692100 0.3 997457
09:00−10ene51792100 0.5 992559
12:00−9ene51593100 0.5 987520
15:00−9ne51493100 1.1 983561
18:00−8ne51294100 0.6 980548
21:00−9nne41194100 1.2 978501
1 december, wed
wed100:00−9nne399289 0.3 978400
03:00−9n279586 0.4 979291
06:00−10nnw2597100 0.1 980157
09:00−10nw1397100 0.2 982110
12:00−9wnw2394100 0.2 983205
15:00−9wsw249693 0.6 985256
18:00−10wsw159798 0.2 986189
21:00−10wsw2596100 0.5 987250
2 december, thu
thu200:00−10sw2696100 0.5 987273
03:00−9wsw3995100 1.0 987399
06:00−10sw3109596 0.1 988334
09:00−10wsw4119394 0.3 989388
12:00−12sw4119496 0.0 991371
15:00−13sw3109493 0.1 993308
18:00−14sw3109576 0.0 994245
21:00−15sw389765 0.0 995178